World > North America > United States > Virginia

Hourly Ingalls, VA Regional Weather

Feedback E-mail the Weather

Quick WX

Ingalls, VA Weather Maps

°F °C°F °C
Ingalls Weather Map
UTC Time: 6/25/2022, 19:19
Your Time:

Ingalls, VA Regional Weather

Expires:202206252000;;178511
ASUS41 KAKQ 251916
RWRAKQ

REGIONAL WEATHER ROUNDUP
NATIONAL WEATHER SERVICE WAKEFIELD VA
300 PM EDT SAT JUN 25 2022

Note: "fair" indicates few or no clouds below 12,000 feet with no
significant weather and/or obstructions to visibility. * = Denotes
station may not report precipitation (e.g., rain,snow,etc.),
thunder or fog.


VAZ020-022-025-037-045-252000-
WEST CENTRAL AND SOUTHWEST VIRGINIA
  
CITY           SKY/WX    TMP DP  RH WIND       PRES   REMARKS
STAUNTON*      MOSUNNY   81  67  62 S7        30.16F                  
WAYNESBORO*    FAIR      82  66  58 SE5       30.16S                  
HOT SPRINGS VA PTSUNNY   75  70  84 SE5       30.28F                  
LYNCHBURG      MOSUNNY   86  66  51 S9        30.14F                  
DANVILLE       PTSUNNY   86  64  47 VRB5      30.13F                  
SOUTH BOSTON*  FAIR      87  65  47 E3        30.14F                  
MARTINSVILLE   MOSUNNY   85  67  55 SW7       30.17S                  
ROANOKE        PTSUNNY   86  66  51 S9        30.15F                  
BLACKSBURG     MOSUNNY   84  69  59 SE8       30.20F                  
DUBLIN*        PTSUNNY   85  66  53 E8        30.17F                  
MARION*        PTSUNNY   86  64  47 S5        30.20F                  
HILLSVILLE*    MOSUNNY   80  67  63 CALM      30.20F                  
RICHLANDS*     MOCLDY    84  66  53 CALM      30.19S                  
WISE*          TSTM      70  63  78 N9        30.21R                  
ABINGDON*      PTSUNNY   86  66  51 W10       30.15F                  
$$


SKY/WX - Weather  TMP - Temperature  DP - Dew Point  RH - Humidity
WIND - Wind Direction/Speed PRES - Barometric Pressure VSB - Visibility
WCI - Wind Chill Index E13G22 Wind - East Wind 13 mph/Gusts of 22 mph

Trending Headlines

Ingalls Radar Loop



Ingalls Quick Facts


National Two Day Weather Forecast


E-mail the Ingalls Weather Forecast

Voice your opinion or tell us about page issues...